Regional Weather Roundup
Issued by NWS New Orleans/Baton Rouge, LA

Home | Current Version | Previous Version | Graphics & Text | Print | Product List | Glossary On
Versions: 1 2 3 4 5 6 7 8 9 10 11 12 13 14 15 16 17 18 19 20 21 22 23 24 25 26 27 28 29 30 31 32 33 34 35 36 37 38 39 40 41 42 43 44 45 46 47 48 49 50
710
ASUS44 KLIX 061005
RWRLIX
NEW ORLEANS REGIONAL WEATHER ROUNDUP
NATIONAL WEATHER SERVICE NEW ORLEANS LA
400 AM CST FRI MAR 06 2015

NOTE: "FAIR" INDICATES FEW OR NO CLOUDS BELOW 12,000 FEET WITH NO
      SIGNIFICANT WEATHER AND/OR OBSTRUCTIONS TO VISIBILITY.
      SKY/WX - SKY CONDITION AND SIGNIFICANT WEATHER.
      TMP - AIR TEMPERATURE.     DP    - DEWPOINT TEMPERATURE.
      RH  - RELATIVE HUMIDITY.   PRES  - PRESSURE.
      HI  - HEAT INDEX.          WCI   - WIND CHILL INDEX.

*  THESE STATIONS ARE NOT NWS OR FAA STATIONS AND ARE NOT UNDER
   NWS QUALITY CONTROL.

LAZ038-040-048-061>063-065>067-069-061100-
SOUTHEAST LOUISIANA

CITY           SKY/WX    TMP DP  RH WIND       PRES   REMARKS
N.O. AUDUBON     N/A     33  26  75 MISG        N/A
N.O. INTL ARPT PTCLDY    32  23  69 N21       30.43F WCI  20
N.O. LAKEFRONT PTCLDY    35  25  66 N22       30.44F WCI  23
SLIDELL        CLEAR     30  22  72 N14       30.43S WCI  19
BATON ROUGE    CLEAR     27  16  63 N8        30.49S WCI  19
BOOTHVILLE     CLEAR     38  30  73 N10G23    30.38R WCI  31
BELLE CHASSE   PTCLDY    33  22  63 N10       30.42R WCI  25
BOGALUSA*        N/A     30  23  75 N12       30.46F WCI  20
GALLIANO*      SUNNY     36  27  72 N9G18     30.41S WCI  29
NEW ROADS*       N/A     27  13  54 N10       30.51S WCI  18
GONZALES*        N/A     29  19  64 N7        30.47S WCI  22
HAMMOND*       PTCLDY    28  19  69 N8        30.48S WCI  20
HOUMA*         CLEAR     30  24  76 N9        30.43S WCI  22
PORT FOURCHON* SUNNY     36  27  69 N20       30.43S WCI  25

$$

MSZ070-080>082-061100-
SOUTHERN MISSISSIPPI

CITY           SKY/WX    TMP DP  RH WIND       PRES   REMARKS
MCCOMB         CLEAR     25  15  66 N9        30.46F WCI  15
GULFPORT       CLEAR     30  18  60 N13G21    30.40S WCI  20
BILOXI         CLEAR     30  20  65 N14G21    30.39S WCI  20
PASCAGOULA     CLEAR     30  19  63 N16       30.38F WCI  19

$$

COASTAL OBSERVATIONS
LAKE AND NEARSHORE STATIONS

STATION/POSITION TIME  TEMP    WIND        PRES    WAVE
                       AIR SEA DIR/SP/G            HT/PER
                 (UTC) (F)     (DEG/KT/KT) (MB)    (FT/S)
PASCAGOULA       0918   31      10/ 18/ 23 1028.3
WAVELAND YACHT   0918   32 48   10/ 16/ 22 1029.4
GRAND ISLE       0918   37 58   30/ 21/ 28 1029.1
SOUTHWEST PASS   0918   41 43   20/ 24/ 27 1028.0
NEW CANAL        0918   34      20/ 20/ 26 1030.6
SHELL BEACH      0918   35 55   10/ 24/ 27 1029.4

OFFSHORE STATIONS

STATION/POSITION TIME  TEMP    WIND        PRES    WAVE
                       AIR SEA DIR/SP/G            HT/PER
                 (UTC) (F)     (DEG/KT/KT) (MB)    (FT/S)
64 S DAUPHIN ISL 0928   44 67   30/ 25/ 29 1026.7    8/ 7

$$




USA.gov is the U.S. government's official web portal to all federal, state and local government web resources and services.